FW2728 Weather Reports


Display with metric or nautical units.
time (UTC)temp
F
wind
direction
speed
MPH
gust
MPH
rain 1hr
in
rain 24hr
in
rain mn
in
humidity
%
barometer
mb
20260905095015 80 172 0.0 2.0 0.00 0.00 0.00 76 1013.7
20260905094036 80 180 0.0 1.0 0.00 0.00 0.00 76 1013.7
20260905093016 80 182 0.0 1.0 0.00 0.00 0.00 75 1013.6
20260905092017 80 200 1.0 3.0 0.00 0.00 0.00 75 1013.6
20260905091016 81 234 1.0 3.0 0.00 0.00 0.00 74 1013.5
20260905090017 81 236 1.0 3.0 0.00 0.00 0.00 74 1013.5
20260905085017 81 232 1.0 4.0 0.00 0.00 0.00 73 1013.5
20260905084017 81 208 0.0 3.0 0.00 0.00 0.00 73 1013.5
20260905083017 81 220 1.0 3.0 0.00 0.00 0.00 73 1013.4
20260905082017 82 223 0.0 2.0 0.00 0.00 0.00 72 1013.4
20260905081017 82 213 1.0 3.0 0.00 0.00 0.00 72 1013.4
20260905080017 82 206 1.0 2.0 0.00 0.00 0.00 71 1013.4
20260905075017 82 220 1.0 4.0 0.00 0.00 0.00 71 1013.4
20260905074018 82 227 2.0 5.0 0.00 0.00 0.00 70 1013.3
20260905073015 83 243 2.0 5.0 0.00 0.00 0.00 70 1013.5
20260905072015 83 213 1.0 3.0 0.00 0.00 0.00 69 1013.5
20260905071036 83 211 1.0 4.0 0.00 0.00 0.00 69 1013.5
20260905070016 83 242 1.0 4.0 0.00 0.00 0.00 68 1013.7
20260905065016 84 222 1.0 5.0 0.00 0.00 0.00 67 1013.7
20260905064016 84 210 2.0 5.0 0.00 0.00 0.00 67 1013.8
20260905063016 84 212 2.0 5.0 0.00 0.00 0.00 66 1013.8
20260905062036 84 213 2.0 4.0 0.00 0.00 0.00 65 1013.8
20260905061016 85 209 2.0 4.0 0.00 0.00 0.00 65 1013.8
20260905060017 85 208 1.0 4.0 0.00 0.00 0.00 64 1013.8
20260905055017 85 215 2.0 6.0 0.00 0.00 0.00 63 1013.7
20260905054037 86 210 1.0 4.0 0.00 0.00 0.00 63 1013.5
20260905053037 86 207 1.0 5.0 0.00 0.00 0.00 62 1013.5
20260905052017 86 208 1.0 4.0 0.00 0.00 0.00 61 1013.5
20260905051017 86 200 2.0 6.0 0.00 0.00 0.00 61 1013.5
20260905050018 87 210 2.0 7.0 0.00 0.00 0.00 60 1013.4
20260905045016 87 213 3.0 6.0 0.00 0.00 0.00 60 1013.4
20260905044016 87 195 2.0 5.0 0.00 0.00 0.00 59 1013.4
20260905043056 88 188 2.0 6.0 0.00 0.00 0.00 58 1013.4
20260905042057 88 199 1.0 4.0 0.00 0.00 0.00 57 1013.3
20260905041016 88 205 3.0 7.0 0.00 0.00 0.00 56 1013.3
20260905040016 88 203 2.0 6.0 0.00 0.00 0.00 56 1013.4
20260905035017 89 212 2.0 5.0 0.00 0.00 0.00 55 1013.5
20260905034016 89 188 2.0 6.0 0.00 0.00 0.00 54 1013.5
20260905033037 90 191 2.0 7.0 0.00 0.00 0.00 53 1013.5
20260905032017 90 165 2.0 6.0 0.00 0.00 0.00 53 1013.3
20260905031017 90 191 2.0 6.0 0.00 0.00 0.00 52 1013.3
20260905030017 90 174 2.0 5.0 0.00 0.00 0.00 51 1013.2
20260905025018 91 155 1.0 5.0 0.00 0.00 0.00 50 1013.1
20260905024018 91 140 2.0 6.0 0.00 0.00 0.00 49 1012.9
20260905023018 91 106 1.0 3.0 0.00 0.00 0.00 47 1012.7
20260905022018 92 149 1.0 3.0 0.00 0.00 0.00 46 1012.5
20260905021016 92 143 1.0 4.0 0.00 0.00 0.00 45 1012.4
20260905020018 92 138 1.0 3.0 0.00 0.00 0.00 45 1012.1
20260905015015 93 148 1.0 4.0 0.00 0.00 0.00 45 1012.0
20260905014036 93 112 1.0 6.0 0.00 0.00 0.00 45 1011.9
20260905013016 93 145 2.0 5.0 0.00 0.00 0.00 46 1011.7
20260905012016 93 185 1.0 5.0 0.00 0.00 0.00 46 1011.7
20260905011017 94 132 2.0 8.0 0.00 0.00 0.00 45 1011.6
20260905010016 94 164 1.0 5.0 0.00 0.00 0.00 45 1011.5
20260905005017 94 131 2.0 5.0 0.00 0.00 0.00 44 1011.3
20260905004017 95 110 2.0 6.0 0.00 0.00 0.00 43 1011.2
20260905003017 96 106 3.0 7.0 0.00 0.00 0.00 43 1011.0
20260905002057 96 142 2.0 6.0 0.00 0.00 0.00 42 1011.0
20260905001037 96 171 2.0 6.0 0.00 0.00 0.00 42 1011.0
20260905000018 97 122 3.0 7.0 0.00 0.00 0.00 41 1010.9
20260904235018 97 134 3.0 7.0 0.00 0.00 0.00 41 1010.9
20260904234018 98 130 2.0 5.0 0.00 0.00 0.00 40 1010.9
20260904233018 99 152 2.0 6.0 0.00 0.00 0.00 39 1010.8
20260904232038 99 111 1.0 6.0 0.00 0.00 0.00 38 1010.8
20260904231015 100 105 3.0 9.0 0.00 0.00 0.00 37 1010.8
20260904230015 100 157 3.0 6.0 0.00 0.00 0.00 37 1010.8
20260904225016 101 115 2.0 4.0 0.00 0.00 0.00 36 1010.9
20260904224015 101 149 2.0 8.0 0.00 0.00 0.00 35 1010.9
20260904223016 101 89 2.0 7.0 0.00 0.00 0.00 35 1010.9
20260904222037 100 170 2.0 6.0 0.00 0.00 0.00 36 1011.0
20260904221016 100 199 2.0 8.0 0.00 0.00 0.00 36 1011.0
20260904220016 100 144 3.0 9.0 0.00 0.00 0.00 36 1011.1
20260904215037 100 93 3.0 8.0 0.00 0.00 0.00 37 1011.1
20260904214037 100 124 4.0 8.0 0.00 0.00 0.00 36 1011.2
20260904213017 100 95 3.0 7.0 0.00 0.00 0.00 37 1011.3
20260904212057 100 177 3.0 8.0 0.00 0.00 0.00 36 1011.4
20260904211018 100 192 2.0 12.0 0.00 0.00 0.00 36 1011.5
20260904210017 100 137 1.0 5.0 0.00 0.00 0.00 37 1011.7
20260904205018 99 120 2.0 7.0 0.00 0.00 0.00 38 1011.8
20260904204038 99 204 3.0 8.0 0.00 0.00 0.00 38 1012.0
20260904203018 99 165 2.0 6.0 0.00 0.00 0.00 39 1012.1
20260904202018 99 158 3.0 6.0 0.00 0.00 0.00 39 1012.1
20260904201016 99 183 2.0 7.0 0.00 0.00 0.00 39 1012.3
20260904200015 99 198 3.0 7.0 0.00 0.00 0.00 39 1012.5
20260904195016 98 109 3.0 8.0 0.00 0.00 0.00 39 1012.7
20260904194036 97 211 4.0 9.0 0.00 0.00 0.00 41 1012.8
20260904193036 97 162 2.0 8.0 0.00 0.00 0.00 42 1013.0
20260904192016 97 129 2.0 6.0 0.00 0.00 0.00 43 1013.1
20260904191036 98 127 3.0 7.0 0.00 0.00 0.00 43 1013.2
20260904190016 97 138 3.0 8.0 0.00 0.00 0.00 45 1013.3
20260904185017 96 129 3.0 8.0 0.00 0.00 0.00 47 1013.4
20260904184017 95 83 2.0 5.0 0.00 0.00 0.00 47 1013.6
20260904183017 95 224 4.0 8.0 0.00 0.00 0.00 46 1013.7
20260904182017 95 218 3.0 7.0 0.00 0.00 0.00 47 1013.8
20260904181017 95 261 2.0 8.0 0.00 0.00 0.00 48 1013.9
20260904180017 94 226 3.0 8.0 0.00 0.00 0.00 48 1014.1
20260904175018 94 195 3.0 6.0 0.00 0.00 0.00 48 1014.2
20260904174019 93 215 2.0 6.0 0.00 0.00 0.00 49 1014.3
20260904173018 92 200 1.0 4.0 0.00 0.00 0.00 54 1014.4
20260904172018 91 170 2.0 6.0 0.00 0.00 0.00 53 1014.6
20260904171018 91 248 3.0 7.0 0.00 0.00 0.00 52 1014.7
20260904170015 91 199 3.0 8.0 0.00 0.00 0.00 51 1014.8
20260904165036 91 208 3.0 9.0 0.00 0.00 0.00 50 1014.8
20260904164016 92 222 3.0 9.0 0.00 0.00 0.00 49 1014.9
20260904163016 91 245 4.0 7.0 0.00 0.00 0.00 50 1014.8
20260904162016 91 237 5.0 9.0 0.00 0.00 0.00 52 1014.8
20260904161016 90 232 3.0 8.0 0.00 0.00 0.00 54 1014.8
20260904160016 90 203 4.0 9.0 0.00 0.00 0.00 55 1014.8
20260904155017 89 190 2.0 5.0 0.00 0.00 0.00 60 1014.8
20260904154037 88 243 2.0 6.0 0.00 0.00 0.00 65 1014.8
20260904153016 87 198 3.0 7.0 0.00 0.00 0.00 67 1014.7
20260904152017 87 215 2.0 6.0 0.00 0.00 0.00 68 1014.7
20260904151017 86 223 3.0 6.0 0.00 0.00 0.00 70 1014.7
20260904150017 85 220 3.0 6.0 0.00 0.00 0.00 72 1014.8
20260904145018 85 222 3.0 7.0 0.00 0.00 0.00 74 1014.9
20260904144018 84 228 3.0 8.0 0.00 0.00 0.00 76 1014.8
20260904143038 83 213 3.0 7.0 0.00 0.00 0.00 78 1014.8
20260904142018 82 148 2.0 6.0 0.00 0.00 0.00 79 1014.8
20260904141038 81 175 1.0 5.0 0.00 0.00 0.00 82 1014.9
20260904140018 80 106 2.0 5.0 0.00 0.00 0.00 84 1014.9
20260904135016 80 124 2.0 7.0 0.00 0.00 0.00 84 1014.8
20260904134018 80 155 1.0 5.0 0.00 0.00 0.00 85 1014.8
20260904133016 80 178 2.0 5.0 0.00 0.00 0.00 85 1014.6
20260904132016 79 124 1.0 3.0 0.00 0.00 0.00 85 1014.5
20260904131016 79 121 2.0 6.0 0.00 0.00 0.00 85 1014.4
20260904130017 79 172 1.0 4.0 0.00 0.00 0.00 86 1014.3
20260904125017 79 147 1.0 4.0 0.00 0.00 0.00 86 1014.2
20260904124045 79 150 2.0 5.0 0.00 0.00 0.00 86 1014.1
20260904123017 79 123 1.0 3.0 0.00 0.00 0.00 86 1014.1
20260904122017 78 108 2.0 4.0 0.00 0.00 0.00 86 1014.0
20260904121017 79 113 1.0 3.0 0.00 0.00 0.00 86 1013.9
20260904120018 79 124 1.0 4.0 0.00 0.00 0.00 85 1013.7
20260904115017 79 116 1.0 3.0 0.00 0.00 0.00 85 1013.6
20260904114018 79 125 1.0 3.0 0.00 0.00 0.00 85 1013.6
20260904113058 79 100 0.0 3.0 0.00 0.00 0.00 85 1013.7
20260904112015 79 128 1.0 2.0 0.00 0.00 0.00 85 1013.6
20260904111015 79 121 1.0 3.0 0.00 0.00 0.00 85 1013.6
20260904110015 79 171 1.0 4.0 0.00 0.00 0.00 85 1013.5
20260904105015 79 206 1.0 4.0 0.00 0.00 0.00 85 1013.4
20260904104016 79 195 1.0 4.0 0.00 0.00 0.00 85 1013.3
20260904103016 79 219 1.0 3.0 0.00 0.00 0.00 85 1013.3
20260904102016 79 202 1.0 4.0 0.00 0.00 0.00 84 1013.3
20260904101016 79 172 2.0 7.0 0.00 0.00 0.00 84 1013.3
20260904100036 79 152 1.0 4.0 0.00 0.00 0.00 84 1013.3